GW5728 Weather Reports


time (UTC)temp
C
wind
direction
speed
KPH
gust
KPH
rain 1hr
cm
rain 24hr
cm
rain mn
cm
humidity
%
barometer
mb
20260506200007 18 247 3.2 17.7 0.00 0.00 0.00 66 1067.4
20260506195507 18 333 1.6 17.7 0.00 0.00 0.00 69 1077.5
20260506194452 18 354 1.6 17.7 0.00 0.00 0.00 72 1083.1
20260506193952 18 358 1.6 17.7 0.00 0.00 0.00 70 1048.4
20260506193452 18 52 0.0 17.7 0.00 0.00 0.00 71 1037.7
20260506192952 18 307 0.0 17.7 0.00 0.00 0.00 72 1069.6
20260506185837 17 294 1.6 17.7 0.00 0.00 0.00 73 1072.1
20260506185338 17 250 3.2 17.7 0.00 0.00 0.00 72 1083.3
20260506184838 16 335 0.0 17.7 0.00 0.00 0.00 77 1091.8
20260506184338 16 264 1.6 17.7 0.00 0.00 0.00 76 1075.3
20260506183838 16 218 0.0 17.7 0.00 0.00 0.00 78 1067.5
20260506183338 16 199 1.6 17.7 0.00 0.00 0.00 75 1067.9
20260506182837 16 222 3.2 17.7 0.00 0.00 0.00 75 1069.2
20260506181822 16 222 1.6 17.7 0.00 0.00 0.00 74 1067.2
20260506180807 16 146 1.6 17.7 0.00 0.00 0.00 75 1055.9
20260506180308 16 221 1.6 17.7 0.00 0.00 0.00 74 1058.8
20260506175807 16 279 0.0 17.7 0.00 0.00 0.00 76 1077.3
20260506175307 16 278 0.0 17.7 0.00 0.00 0.00 76 1069.8
20260506174807 16 195 1.6 17.7 0.00 0.00 0.00 75 1045.9
20260506173752 15 151 1.6 17.7 0.00 0.00 0.00 76 1052.7
20260506172737 15 266 1.6 17.7 0.00 0.00 0.00 78 1071.7
20260506172237 15 201 1.6 17.7 0.00 0.00 0.00 77 1066.8
20260506171737 15 236 0.0 17.7 0.00 0.00 0.00 77 1069.2
20260506171238 15 257 0.0 17.7 0.00 0.00 0.00 77 1065.2
20260506170738 15 211 0.0 17.7 0.00 0.00 0.00 78 1062.0
20260506170238 15 205 0.0 17.7 0.00 0.00 0.00 78 1067.3
20260506165738 15 244 0.0 17.7 0.00 0.00 0.00 77 1078.1
20260506165238 15 241 1.6 17.7 0.00 0.00 0.00 76 1081.4
20260506164738 15 309 0.0 17.7 0.00 0.00 0.00 78 1084.1
20260506164238 15 287 0.0 17.7 0.00 0.00 0.00 77 1073.2
20260506163738 15 247 1.6 17.7 0.00 0.00 0.00 77 1067.7
20260506163238 15 211 3.2 17.7 0.00 0.00 0.00 76 1065.6
20260506162738 15 226 0.0 17.7 0.00 0.00 0.00 77 1068.3
20260506162238 14 255 1.6 17.7 0.00 0.00 0.00 78 1072.8
20260506161738 14 219 1.6 17.7 0.00 0.00 0.00 77 1069.0
20260506160723 14 321 0.0 17.7 0.00 0.00 0.00 78 1083.4
20260506155153 14 209 0.0 17.7 0.00 0.00 0.00 77 1065.4
20260506154653 14 250 1.6 17.7 0.00 0.00 0.00 77 1068.3
20260506153638 15 274 0.0 17.7 0.00 0.00 0.00 76 1063.2
20260506153138 15 264 1.6 17.7 0.00 0.00 0.00 75 1046.3
20260506152638 15 130 0.0 17.7 0.00 0.00 0.00 80 1029.9
20260506152138 15 130 0.0 17.7 0.00 0.00 0.00 79 1033.9
20260506151638 15 147 0.0 17.7 0.00 0.00 0.00 78 1041.6
20260506151138 14 136 0.0 17.7 0.00 0.00 0.00 78 1053.6
20260506150638 14 198 0.0 17.7 0.00 0.00 0.00 80 1072.7
20260506150138 13 251 1.6 17.7 0.00 0.00 0.00 79 1081.7
20260506145638 13 224 0.0 17.7 0.00 0.00 0.00 82 1078.9
20260506145138 13 264 1.6 17.7 0.00 0.00 0.00 81 1076.3
20260506144638 13 324 1.6 17.7 0.00 0.00 0.00 81 1072.2
20260506144138 13 225 0.0 17.7 0.00 0.00 0.00 81 1060.5
20260506143638 13 210 1.6 17.7 0.00 0.00 0.00 81 1052.7
20260506142623 12 241 1.6 17.7 0.00 0.00 0.00 82 1071.9
20260506142123 12 257 1.6 17.7 0.00 0.00 0.00 82 1069.2
20260506141108 12 268 1.6 17.7 0.00 0.00 0.00 83 1074.1
20260506140608 12 339 0.0 17.7 0.00 0.00 0.00 83 1085.9
20260506135553 12 252 1.6 17.7 0.00 0.00 0.00 83 1082.0
20260506135053 12 288 1.6 17.7 0.00 0.00 0.00 83 1082.8
20260506134553 12 314 0.0 17.7 0.00 0.00 0.00 83 1071.7
20260506134053 12 223 0.0 17.7 0.00 0.00 0.00 84 1069.2
20260506132523 12 265 0.0 17.7 0.00 0.00 0.00 83 1083.6
20260506132023 12 245 1.6 17.7 0.00 0.00 0.00 83 1078.6
20260506131523 12 262 0.0 17.7 0.00 0.00 0.00 84 1076.7
20260506131023 12 274 0.0 17.7 0.00 0.00 0.00 84 1073.8
20260506130523 12 228 0.0 17.7 0.00 0.00 0.00 84 1070.6
20260506130023 12 225 1.6 17.7 0.00 0.00 0.00 84 1074.3
20260506125523 12 252 0.0 17.7 0.00 0.00 0.00 84 1070.2
20260506125022 12 231 1.6 17.7 0.00 0.00 0.00 84 1069.9
20260506124522 12 228 0.0 17.7 0.00 0.00 0.00 84 1067.2
20260506124022 12 203 0.0 17.7 0.00 0.00 0.00 84 1075.8
20260506123522 12 290 3.2 17.7 0.00 0.00 0.00 85 1074.7
20260506122507 12 220 1.6 17.7 0.00 0.00 0.00 85 1062.3
20260506122007 12 249 1.6 17.7 0.00 0.00 0.00 85 1059.2
20260506121507 12 31 0.0 17.7 0.00 0.00 0.00 85 1043.9
20260506121007 12 282 0.0 17.7 0.00 0.00 0.00 85 1072.2
20260506120507 12 292 0.0 17.7 0.00 0.00 0.00 84 1082.6
20260506120007 12 238 1.6 17.7 0.00 0.00 0.00 84 1079.4
20260506115506 12 310 1.6 17.7 0.00 0.00 0.00 84 1078.2
20260506115005 13 305 3.2 17.7 0.00 0.00 0.00 84 1076.7
20260506114505 13 329 0.0 17.7 0.00 0.00 0.00 84 1076.2
20260506114005 13 286 0.0 17.7 0.00 0.00 0.00 83 1070.1
20260506113504 13 322 1.6 17.7 0.00 0.00 0.00 83 1058.0
20260506111934 13 290 0.0 17.7 0.00 0.00 0.00 83 1077.3
20260506111434 13 215 0.0 17.7 0.00 0.00 0.00 83 1070.3
20260506110419 13 303 0.0 17.7 0.00 0.00 0.00 83 1079.3
20260506105919 13 236 0.0 17.7 0.00 0.00 0.00 83 1071.8
20260506105419 13 192 1.6 17.7 0.00 0.00 0.00 83 1064.9
20260506104919 13 266 0.0 17.7 0.00 0.00 0.00 83 1074.8
20260506103904 13 191 0.0 17.7 0.00 0.00 0.00 83 1063.5
20260506103403 13 336 1.6 17.7 0.00 0.00 0.00 83 1057.0
20260506102903 13 161 1.6 17.7 0.00 0.00 0.00 83 1056.9
20260506102404 13 176 0.0 17.7 0.00 0.00 0.00 83 1070.6
20260506100833 13 274 0.0 17.7 0.00 0.00 0.00 84 1095.1
20260506100333 13 300 0.0 17.7 0.00 0.00 0.00 84 1092.0
20260506095833 13 283 0.0 17.7 0.00 0.00 0.00 84 1089.8
20260506095333 13 278 0.0 17.7 0.00 0.00 0.00 84 1089.4
20260506094834 13 284 0.0 17.7 0.00 0.00 0.00 84 1089.0
20260506094333 13 284 0.0 17.7 0.00 0.00 0.00 84 1086.6
20260506093834 13 270 0.0 17.7 0.00 0.00 0.00 84 1085.3
20260506092819 13 267 0.0 17.7 0.00 0.00 0.00 84 1083.6
20260506092318 13 256 0.0 17.7 0.00 0.00 0.00 84 1085.0
20260506091818 13 263 0.0 17.7 0.00 0.00 0.00 84 1091.5
20260506091317 13 301 0.0 17.7 0.00 0.00 0.00 85 1091.0
20260506090817 13 263 0.0 17.7 0.00 0.00 0.00 84 1089.3
20260506090318 13 294 0.0 17.7 0.00 0.00 0.00 85 1089.9
20260506085818 13 277 0.0 17.7 0.00 0.00 0.00 85 1082.9
20260506085318 13 263 0.0 17.7 0.00 0.00 0.00 87 1080.8
20260506084818 13 263 0.0 17.7 0.00 0.00 0.00 87 1079.6
20260506084318 13 263 0.0 17.7 0.00 0.00 0.00 86 1077.5
20260506083818 13 264 0.0 17.7 0.00 0.00 0.00 84 1073.4
20260506083318 13 221 0.0 17.7 0.00 0.00 0.00 85 1065.9
20260506082818 13 245 0.0 17.7 0.00 0.00 0.00 86 1063.7
20260506082318 13 232 0.0 17.7 0.00 0.00 0.00 86 1055.6
20260506081818 13 215 0.0 17.7 0.00 0.00 0.00 86 1043.1
20260506081318 13 162 0.0 17.7 0.00 0.00 0.00 87 1026.1
20260506080302 13 119 0.0 17.7 0.00 0.00 0.00 89 1023.3
20260506072231 12 53 0.0 17.7 0.00 0.00 0.00 90 993.8
20260506071731 12 35 0.0 17.7 0.00 0.00 0.00 90 989.1
20260506071231 12 28 0.0 17.7 0.00 0.00 0.00 90 993.7
20260506070731 12 22 0.0 17.7 0.00 0.00 0.00 90 1006.7
20260506070231 12 346 0.0 17.7 0.00 0.00 0.00 90 1036.2
20260506062228 11 113 0.0 17.7 0.00 0.00 0.00 89 1021.5
20260506061213 12 113 0.0 17.7 0.00 0.00 0.00 89 1031.4
20260506060713 12 113 0.0 17.7 0.00 0.00 0.00 87 1044.4
20260506060213 12 212 0.0 17.7 0.00 0.00 0.00 88 1071.4
20260506050112 12 228 0.0 17.7 0.00 0.00 0.00 88 1067.1
20260506045112 12 228 0.0 17.7 0.00 0.00 0.00 87 1067.2
20260506044612 12 228 0.0 17.7 0.00 0.00 0.00 86 1067.2
20260506044112 13 228 0.0 17.7 0.00 0.00 0.00 86 1067.2
20260506043057 13 228 0.0 17.7 0.00 0.00 0.00 86 1067.4
20260506042557 13 228 0.0 17.7 0.00 0.00 0.00 85 1067.7
20260506042057 13 228 0.0 17.7 0.00 0.00 0.00 85 1068.2
20260506041557 13 228 0.0 17.7 0.00 0.00 0.00 85 1069.3
20260506041057 13 228 0.0 17.7 0.00 0.00 0.00 84 1071.7
20260506040557 14 228 0.0 17.7 0.00 0.00 0.00 84 1076.6
20260506035542 14 334 0.0 17.7 0.00 0.00 0.00 83 1090.9
20260506035042 15 334 0.0 17.7 0.00 0.00 0.00 82 1070.6
20260506033512 15 15 0.0 17.7 0.00 0.00 0.00 82 988.1
20260506033012 15 15 0.0 17.7 0.00 0.00 0.00 81 999.2
20260506032512 15 15 0.0 17.7 0.00 0.00 0.00 80 1021.1
20260506032012 15 19 0.0 17.7 0.00 0.00 0.00 80 1063.7
20260506031512 16 279 0.0 17.7 0.00 0.00 0.00 79 1087.0
20260506030457 16 247 0.0 17.7 0.00 0.00 0.00 78 1083.4
20260506025958 16 247 0.0 17.7 0.00 0.00 0.00 77 1091.7
20260506025457 16 315 0.0 17.7 0.00 0.00 0.00 75 1109.4
20260506024957 16 336 0.0 17.7 0.00 0.00 0.00 76 1112.2
20260506024458 17 339 0.0 17.7 0.00 0.00 0.00 74 1111.7
20260506023958 17 339 0.0 17.7 0.00 0.00 0.00 73 1109.6
20260506023457 17 339 0.0 17.7 0.00 0.00 0.00 72 1105.5
20260506022957 18 339 0.0 17.7 0.00 0.00 0.00 71 1097.4
20260506021943 19 267 0.0 17.7 0.00 0.00 0.00 67 1076.6
20260506021442 19 251 0.0 17.7 0.00 0.00 0.00 65 1074.2
20260506020943 20 283 1.6 17.7 0.00 0.00 0.00 62 1077.3
20260506020443 20 285 0.0 17.7 0.00 0.00 0.00 61 1085.9
20260506015427 20 320 1.6 17.7 0.00 0.00 0.00 60 1076.7
20260506014928 20 100 0.0 17.7 0.00 0.00 0.00 61 1054.1
20260506014428 20 278 1.6 17.7 0.00 0.00 0.00 59 1078.7
20260506013928 20 188 1.6 17.7 0.00 0.00 0.00 59 1063.6
20260506013428 20 244 1.6 17.7 0.00 0.00 0.00 61 1075.6
20260506012928 20 260 0.0 17.7 0.00 0.00 0.00 61 1080.1
20260506012427 20 323 0.0 17.7 0.00 0.00 0.00 62 1085.5
20260506011928 20 54 1.6 17.7 0.00 0.00 0.00 63 1066.6
20260506011428 20 210 1.6 17.7 0.00 0.00 0.00 60 1053.7
20260506010928 20 199 1.6 17.7 0.00 0.00 0.00 60 1059.8
20260506010428 20 288 3.2 17.7 0.00 0.00 0.00 60 1066.8
20260506005928 20 271 1.6 17.7 0.00 0.00 0.00 60 1068.5
20260506004358 20 202 1.6 17.7 0.00 0.00 0.00 62 1065.0
20260506003343 19 141 0.0 17.7 0.00 0.00 0.00 66 1055.2
20260506002328 18 160 0.0 17.7 0.00 0.00 0.00 68 1073.6
20260506001828 18 316 1.6 17.7 0.00 0.00 0.00 67 1075.2
20260506000813 18 47 1.6 17.7 0.00 0.00 0.00 67 1061.1
20260505235758 18 6 0.0 17.7 0.00 0.00 0.00 67 1048.9
20260505235258 18 15 1.6 17.7 0.00 0.00 0.00 66 1070.0
20260505233728 18 214 1.6 17.7 0.00 0.00 0.00 65 1068.6
20260505233228 18 199 0.0 17.7 0.00 0.00 0.00 67 1066.2
20260505232728 18 259 1.6 17.7 0.00 0.00 0.00 66 1065.9
20260505232228 18 181 0.0 17.7 0.00 0.00 0.00 65 1058.8
20260505231728 18 243 1.6 17.7 0.00 0.00 0.00 64 1072.0
20260505231228 18 223 1.6 17.7 0.00 0.00 0.00 66 1066.3
20260505230728 18 276 0.0 17.7 0.00 0.00 0.00 67 1070.3
20260505225158 18 254 1.6 17.7 0.00 0.00 0.00 66 1092.5
20260505224658 18 301 0.0 17.7 0.00 0.00 0.00 67 1091.8
20260505224158 18 277 1.6 17.7 0.00 0.00 0.00 66 1089.8
20260505223658 18 317 0.0 17.7 0.00 0.00 0.00 67 1100.9
20260505223158 18 330 1.6 17.7 0.00 0.00 0.00 66 1092.7
20260505222658 18 269 0.0 17.7 0.00 0.00 0.00 66 1096.2
20260505221643 18 309 0.0 17.7 0.00 0.00 0.00 67 1087.1
20260505221143 18 243 3.2 17.7 0.00 0.00 0.00 64 1085.2
20260505220128 18 295 0.0 17.7 0.00 0.00 0.00 66 1097.1
20260505215628 18 312 0.0 17.7 0.00 0.00 0.00 69 1095.1
20260505215128 18 294 0.0 17.7 0.00 0.00 0.00 71 1088.6
20260505213558 18 254 0.0 17.7 0.00 0.00 0.00 68 1072.2
20260505213058 18 258 0.0 17.7 0.00 0.00 0.00 71 1065.7
20260505212043 17 138 0.0 17.7 0.00 0.00 0.00 70 1045.4
20260505211543 17 177 0.0 17.7 0.00 0.00 0.00 67 1062.6
20260505211043 18 262 0.0 17.7 0.00 0.00 0.00 68 1068.7
20260505210543 17 77 0.0 17.7 0.00 0.00 0.00 71 1067.1
20260505210043 17 310 0.0 17.7 0.00 0.00 0.00 72 1097.2
20260505204514 17 270 0.0 17.7 0.00 0.00 0.00 70 1085.6
20260505204013 17 322 1.6 17.7 0.00 0.00 0.00 71 1081.7
20260505203513 17 171 1.6 17.7 0.00 0.00 0.00 70 1073.7
20260505203013 17 340 0.0 17.7 0.00 0.00 0.00 71 1096.3
20260505201958 17 262 0.0 17.7 0.00 0.00 0.00 73 1081.5
20260505200943 17 270 0.0 17.7 0.00 0.00 0.00 70 1070.5
20260505200443 17 183 0.0 17.7 0.00 0.00 0.00 71 1061.5